Wind_Speed
10 5 4 7 6 6 7 8 9 7 6 6 4 3 3 3 4 4 4 5 2 2 3 5 7 8 12 12 14 21 21 14 12 15 22 26 28 31 31 31 30 28 27 25 24 23 22 22 20 19 18 17 17 16 16 15 14 13 12 12 11 10 10 9 9 7 6 5 5 5 5 6 7 8 9 10 11 12 12 12 12 12 12 12 13 14
8 7 7 7 7 8 7 8 9 7 5 4 4 3 3 2 5 5 4 5 1 2 3 4 8 8 12 13 13 17 16 10 14 16 20 25 27 29 30 30 29 27 28 27 25 24 24 22 21 20 19 18 16 16 16 14 13 12 11 10 9 9 8 7 6 4 4 5 5 6 6 7 8 9 10 11 12 13 13 12 13 15 15 14 15 15
5 6 6 7 6 7 6 7 8 7 6 3 3 3 2 3 4 5 4 5 1 3 3 3 7 6 11 12 12 17 17 21 29 27 25 28 27 28 29 29 29 29 30 29 27 26 24 23 22 20 19 17 15 15 14 13 12 12 11 8 7 7 7 5 4 4 4 5 6 7 8 9 10 12 13 13 13 13 14 14 14 16 16 15 16 16
4 6 6 7 6 7 4 5 7 5 5 4 4 3 3 4 1 2 4 6 2 2 2 4 5 3 7 8 10 15 16 20 27 23 19 23 23 25 29 29 30 31 32 30 28 27 25 23 21 20 19 16 15 14 13 11 10 11 11 9 6 5 6 5 4 5 5 6 7 8 9 10 11 12 13 13 12 13 14 15 14 15 16 16 16 17
4 6 7 8 6 8 6 5 7 5 4 3 5 6 4 4 3 3 3 6 5 3 1 6 5 0 5 8 8 5 4 10 17 16 16 19 17 21 27 28 29 31 32 31 29 28 26 24 22 20 19 16 16 15 13 12 11 11 10 8 5 4 5 4 5 5 5 5 7 8 9 9 10 10 10 10 10 11 13 14 15 16 17 18 18 18
6 6 8 10 5 7 7 6 7 7 4 3 5 9 7 5 4 3 4 5 6 5 2 5 4 3 4 10 11 6 5 7 10 12 17 19 19 23 26 26 27 28 28 28 30 30 27 25 24 21 19 18 16 15 13 12 11 10 8 8 6 3 4 4 4 4 3 4 6 6 7 8 8 8 7 8 10 11 13 15 16 17 18 19 20 21
5 5 7 9 7 7 7 6 6 7 6 3 5 8 8 7 4 3 3 2 1 4 4 3 5 2 4 7 10 10 10 8 6 8 14 18 22 27 27 24 26 26 24 26 29 29 28 27 25 23 21 20 17 16 14 12 10 9 8 9 7 5 5 5 5 5 5 5 6 6 7 8 8 8 8 10 13 14 16 18 19 19 19 20 21 23
6 8 6 8 8 7 7 5 5 8 7 4 4 7 9 7 5 5 4 3 3 4 5 1 5 4 2 6 6 10 14 11 9 9 11 19 24 27 27 25 25 25 24 26 27 27 27 26 25 24 24 21 19 18 16 14 12 10 9 10 9 9 9 8 7 7 7 7 8 8 8 8 9 10 12 14 16 18 19 20 21 21 21 21 22 22
5 10 7 7 8 6 6 5 7 9 5 5 4 8 8 8 7 6 5 5 2 1 6 4 3 4 3 4 2 8 13 13 14 13 12 19 25 26 26 25 24 24 24 26 26 26 25 24 24 25 25 24 22 20 18 16 14 12 12 12 11 12 10 8 8 8 8 9 10 9 9 9 11 13 15 18 19 20 21 20 19 20 20 20 20 19
4 11 11 8 6 6 6 5 8 10 5 5 5 4 2 4 3 4 4 4 1 1 6 6 4 4 3 2 4 8 12 13 12 12 13 18 23 24 24 26 26 24 25 25 25 25 24 23 23 24 24 25 23 21 19 17 16 14 13 13 12 12 11 9 9 9 9 10 10 10 11 12 14 16 18 19 20 19 18 17 17 17 18 18 17 17
3 9 13 8 6 6 7 5 7 11 7 3 4 1 1 2 3 2 1 2 2 2 8 8 7 6 2 3 6 7 9 14 12 9 10 12 18 23 25 28 28 26 27 26 25 26 25 24 23 23 24 23 22 21 20 19 17 14 13 13 13 12 11 9 9 9 9 10 12 13 14 15 17 17 18 19 19 18 16 16 16 17 17 17 16 16
4 5 7 6 9 8 6 5 6 8 7 3 3 3 1 3 4 4 3 2 2 5 8 6 6 7 5 5 6 5 5 13 14 12 14 14 18 25 27 29 30 27 28 28 26 26 27 25 24 23 22 21 22 22 20 18 16 14 13 12 12 12 11 11 11 11 12 13 14 15 16 17 17 17 18 18 17 16 16 16 17 17 18 17 16 15
6 4 1 4 11 12 7 3 4 4 4 5 3 4 3 1 1 2 3 1 3 6 6 3 3 4 4 4 6 8 6 12 15 14 19 22 24 27 27 28 30 28 29 30 29 29 30 29 27 25 23 21 21 20 18 17 16 15 14 12 12 13 13 14 14 14 15 15 16 16 17 18 18 18 18 17 16 16 17 17 17 18 18 16 15 15
4 5 3 4 7 12 10 6 5 4 5 8 6 5 5 3 3 4 3 1 3 4 3 2 2 3 3 2 3 5 6 11 12 11 17 21 24 27 26 27 30 29 30 32 32 32 31 31 31 29 28 26 22 19 18 18 17 17 16 15 14 15 16 16 15 16 16 16 17 18 19 18 18 18 18 17 17 17 17 17 17 17 17 15 15 16
6 5 6 7 4 9 12 9 8 5 5 6 5 6 5 4 5 4 4 3 3 4 2 3 0 2 2 1 2 3 3 11 15 15 19 21 23 25 24 27 30 30 31 31 32 32 30 29 29 29 28 27 24 21 18 16 16 16 16 16 16 16 15 14 15 16 16 17 18 19 18 17 16 16 16 16 16 15 15 15 15 14 13 13 15 16
8 7 6 7 7 9 10 9 8 7 4 4 4 6 4 6 5 1 3 6 4 2 1 2 1 2 2 1 2 3 9 15 20 22 24 22 23 25 24 26 29 29 30 30 29 29 29 28 27 26 26 25 23 23 21 19 17 15 15 14 14 14 13 15 17 18 18 18 16 14 13 13 13 13 12 11 11 11 12 12 11 10 11 13 15 15
7 5 4 5 8 9 10 11 10 8 5 2 4 6 5 5 6 3 1 1 3 3 1 1 1 1 1 2 3 8 11 12 15 20 22 20 22 24 22 24 27 27 27 29 29 28 27 27 25 24 23 22 22 21 20 19 17 16 15 15 15 15 16 17 19 19 17 14 11 9 8 8 9 8 8 8 8 9 10 10 8 9 11 12 13 14
5 3 5 5 8 11 12 12 10 10 9 5 5 6 3 3 3 3 2 2 4 2 2 1 2 2 2 1 2 10 12 11 12 15 17 17 20 21 19 22 26 25 25 27 29 28 26 25 24 22 20 19 18 16 14 13 11 12 13 14 14 15 16 17 16 14 11 8 6 6 5 5 6 6 7 8 9 9 10 8 7 8 10 10 12 13
3 1 6 6 9 9 8 6 5 8 7 5 6 7 5 4 2 1 3 2 2 1 2 1 2 2 2 2 5 11 12 12 13 13 12 13 17 19 20 23 26 25 25 26 27 26 24 23 21 19 17 15 13 11 9 8 9 11 13 13 13 13 13 12 10 8 6 5 6 6 5 5 5 5 6 7 8 8 8 8 7 7 9 9 11 13
2 2 4 4 7 6 5 4 4 6 2 4 6 6 3 3 4 3 2 3 4 3 1 2 2 3 2 4 8 13 12 11 13 13 10 12 18 22 23 25 27 26 25 25 26 24 22 21 18 15 14 12 9 7 6 8 11 11 9 8 8 7 7 6 6 6 5 5 5 5 5 5 5 5 4 4 6 8 8 8 7 7 8 9 10 11
1 2 2 4 1 4 4 4 7 7 4 4 6 5 3 2 2 2 1 2 5 5 3 3 2 4 3 4 8 13 13 12 15 14 11 15 21 23 24 27 27 27 26 25 25 23 20 18 16 13 11 9 7 6 6 8 10 9 7 5 4 4 5 6 7 7 7 6 4 3 3 3 3 3 2 3 6 8 8 7 6 6 8 9 9 9
1 2 2 2 0 4 5 4 7 10 9 7 6 6 5 4 4 3 2 2 3 4 4 4 3 5 4 2 5 11 11 11 15 15 12 17 24 25 26 28 28 28 28 25 24 21 19 17 15 13 11 9 8 8 9 10 11 9 7 5 4 4 5 5 5 4 3 2 2 2 2 1 1 1 2 4 6 7 6 6 6 7 8 9 9 9
3 3 2 2 3 5 6 3 6 11 9 7 5 4 4 5 5 6 4 3 2 3 2 3 1 5 5 2 3 7 8 10 16 18 16 19 25 27 28 29 29 29 27 25 22 20 18 16 14 12 10 9 10 11 13 12 10 8 7 6 5 5 4 1 1 1 1 1 1 1 1 1 1 1 2 3 4 5 5 6 6 7 9 10 11 10
3 2 1 2 3 3 5 4 2 5 6 4 2 3 5 4 4 6 5 4 4 3 2 3 0 4 4 1 2 8 12 13 17 21 22 21 23 28 30 29 30 29 26 24 21 19 17 15 14 12 11 11 12 14 14 12 10 9 8 6 5 3 2 1 2 2 2 1 1 1 1 1 1 1 1 2 3 4 5 6 7 9 10 11 12 12
5 2 2 1 1 3 3 1 2 2 3 3 2 3 5 5 6 5 3 3 3 3 5 5 3 5 2 3 6 10 12 12 14 20 24 24 23 27 30 29 29 28 26 23 22 20 19 16 15 14 12 12 14 15 14 12 11 11 9 6 3 1 1 1 2 2 1 1 1 2 3 3 3 2 2 2 3 4 6 8 9 9 9 11 13 14
6 2 3 4 3 2 4 5 3 4 3 1 3 5 5 7 9 5 3 4 1 2 4 5 4 3 3 7 9 10 11 11 13 17 22 25 26 26 28 29 29 28 26 24 23 21 19 17 16 15 13 13 15 15 14 14 13 12 9 6 2 2 2 2 2 2 1 2 4 5 6 5 4 3 2 3 4 6 7 9 9 9 10 12 14 15
3 2 4 5 6 6 6 7 6 4 5 1 3 5 4 6 8 6 5 3 4 3 3 3 5 6 7 9 10 11 12 11 12 16 20 24 27 27 27 28 27 26 24 22 21 20 19 17 16 15 15 16 17 16 14 13 13 10 8 5 3 2 2 2 1 2 3 5 7 8 7 5 5 5 5 6 7 8 8 9 10 12 14 15 14 14
3 2 6 4 4 4 4 6 4 5 5 2 3 3 1 5 8 8 5 5 6 6 2 5 7 10 10 10 11 13 14 13 12 16 21 24 27 27 26 26 25 24 23 22 22 21 19 18 17 17 18 19 19 16 14 13 11 9 6 5 4 3 4 4 3 5 7 8 9 8 8 8 9 9 10 11 11 11 12 13 14 15 15 14 13 14
4 4 5 3 2 4 5 1 5 8 5 4 5 3 2 3 7 9 7 6 8 7 5 7 11 11 11 13 15 15 15 16 16 20 23 25 27 26 26 26 25 25 25 24 22 20 18 17 18 19 20 20 19 17 15 13 10 7 6 5 5 5 6 5 5 8 10 10 10 11 12 13 13 14 14 14 15 15 16 16 15 14 13 12 13 13
3 4 3 5 4 6 8 5 6 10 6 5 5 3 4 3 4 5 4 4 7 5 5 10 11 5 3 8 11 12 16 19 22 24 25 26 27 27 27 27 26 27 27 23 20 18 18 18 19 20 20 20 19 17 14 11 9 7 6 5 4 4 4 4 7 10 10 10 12 14 15 16 15 15 16 15 16 16 16 15 13 12 12 13 13 12
2 3 2 6 4 4 6 6 7 9 8 7 6 5 5 5 5 5 3 4 6 4 5 11 9 1 1 5 10 15 21 23 23 25 26 26 29 29 28 28 28 29 27 24 21 20 20 20 20 20 20 20 19 17 13 10 8 6 5 4 3 3 3 5 9 11 11 12 14 15 16 15 15 15 15 15 14 14 14 13 12 12 12 12 13 13
3 1 1 6 4 2 3 3 4 7 10 8 6 6 4 4 3 2 1 2 5 8 10 10 6 4 4 9 12 16 21 22 21 23 25 26 30 32 30 29 29 28 25 23 23 24 23 23 22 20 20 20 19 15 11 8 7 6 5 4 3 3 3 6 11 12 11 13 15 15 15 15 14 14 14 14 14 13 12 11 11 11 11 12 13 13
5 5 2 4 4 3 4 2 2 4 7 3 2 1 0 1 2 2 1 0 6 11 11 6 5 6 9 12 13 13 15 17 20 25 27 27 28 29 29 29 28 26 25 24 25 25 25 24 23 21 21 20 19 15 11 8 7 6 5 4 4 4 3 7 13 12 11 13 14 14 14 14 13 14 14 14 13 12 11 10 10 10 11 11 12 12
5 8 4 2 4 4 5 3 2 1 2 4 5 4 4 2 2 3 1 1 4 6 4 3 5 11 13 13 15 16 17 22 25 28 30 31 30 28 28 28 27 26 26 26 25 24 24 24 23 22 21 21 20 16 12 9 7 5 4 5 4 4 5 10 14 12 11 13 13 13 13 13 13 14 14 13 13 12 11 11 12 12 12 12 12 11
6 7 3 1 4 3 2 3 2 5 6 5 5 3 4 5 5 5 3 1 1 3 3 5 9 14 14 12 14 15 19 26 30 31 33 34 34 33 30 28 28 28 28 26 24 23 23 25 25 24 23 22 19 15 12 9 6 5 6 6 4 5 9 13 14 12 12 12 12 13 13 12 13 13 14 14 13 13 13 13 13 14 14 13 13 13
7 6 3 2 3 2 1 3 4 6 4 3 4 2 3 4 3 5 4 2 3 1 5 8 9 11 12 15 17 18 21 26 26 28 32 32 32 34 33 31 30 29 28 26 24 24 25 26 25 24 23 21 17 14 10 7 5 5 6 6 6 9 13 14 14 14 13 13 13 13 13 13 13 14 14 14 12 12 13 13 13 14 14 14 14 15
7 5 4 3 1 3 4 2 2 2 3 3 3 2 4 5 4 5 4 3 5 2 6 10 11 10 14 20 23 25 27 23 15 14 23 28 29 31 31 31 30 27 25 25 24 25 26 26 24 23 21 19 16 12 9 6 4 5 6 8 11 14 16 15 15 16 15 15 15 15 14 14 13 13 13 12 11 12 13 13 13 14 13 12 13 14
6 4 5 4 1 2 4 2 2 2 2 5 5 5 2 4 6 6 4 2 5 4 10 14 13 13 15 20 26 28 25 15 5 8 20 27 29 31 30 28 27 26 25 27 26 27 27 26 23 22 19 17 15 11 8 6 4 6 10 13 15 16 16 17 17 17 16 17 16 15 14 13 12 12 12 12 13 14 14 14 14 14 13 13 14 15
8 4 4 6 3 2 4 3 2 3 4 5 6 5 1 5 7 5 4 3 5 10 18 19 16 17 20 25 30 27 18 9 5 11 24 30 30 32 32 28 27 26 25 26 27 27 27 26 23 22 19 16 13 11 9 6 5 9 15 17 18 17 18 18 17 17 17 17 16 15 14 13 13 13 14 15 16 16 16 16 16 15 15 15 16 17
7 4 4 5 3 2 4 2 2 3 3 3 5 4 4 7 6 6 1 6 8 17 25 25 23 23 27 31 31 21 11 8 10 19 30 32 31 33 33 31 30 29 27 26 26 26 27 26 23 22 19 15 13 11 9 8 10 15 19 20 19 18 18 18 18 17 17 16 16 15 15 14 14 15 15 16 17 17 17 17 16 16 16 16 17 17
4 4 3 4 3 3 4 2 2 3 4 4 5 5 7 6 4 4 3 6 11 21 27 29 30 30 32 33 29 17 7 8 19 30 35 33 32 34 32 31 31 30 27 27 29 28 27 25 22 20 17 14 12 11 10 12 16 19 20 20 20 19 19 19 18 17 17 17 16 16 16 16 15 16 16 17 17 17 17 16 16 15 15 16 16 16
1 1 2 3 3 3 3 2 0 4 4 5 4 4 5 4 2 4 4 5 17 24 25 29 33 34 34 31 27 21 17 20 31 37 36 34 35 35 32 30 30 29 28 30 31 30 28 25 22 19 17 15 13 12 13 16 19 21 21 21 20 19 19 18 18 17 17 17 17 17 17 17 16 16 17 16 16 16 16 16 15 15 15 15 15 16
3 3 2 2 3 2 2 2 2 3 5 10 10 4 3 4 3 3 2 8 20 25 24 27 32 34 33 29 26 27 29 32 38 39 36 36 36 34 34 32 30 30 31 31 30 28 26 25 22 19 17 16 14 14 17 18 20 21 21 20 19 19 18 18 18 17 18 17 17 17 17 16 16 16 16 15 14 14 15 15 14 14 14 14 15 16
2 2 3 3 2 3 2 3 4 4 5 10 9 2 3 3 1 3 9 13 18 23 24 25 27 31 33 31 30 34 37 41 42 39 37 37 36 35 35 33 31 31 31 29 28 26 24 24 22 20 18 17 16 16 18 18 19 21 20 19 20 19 18 18 18 18 18 18 17 17 16 16 16 15 14 14 13 13 14 14 14 14 14 14 14 16
2 2 4 3 2 3 4 5 4 2 1 4 3 2 1 2 1 5 13 19 22 25 27 27 27 29 32 32 34 37 41 44 44 41 39 39 37 36 35 33 32 32 30 28 27 25 23 23 22 20 19 18 17 17 17 17 18 20 21 20 20 19 19 20 19 19 19 18 17 17 16 16 16 15 15 14 13 13 14 14 14 14 14 14 15 17
2 0 2 3 1 1 1 1 1 3 4 2 2 1 1 3 5 7 13 19 23 25 30 32 31 31 33 34 36 38 41 44 44 42 41 40 38 37 34 32 31 30 29 29 28 25 24 23 22 21 21 20 17 16 17 17 18 20 22 22 21 20 20 20 20 20 19 19 18 17 16 16 16 16 16 15 14 14 15 14 14 15 15 15 17 18
2 1 2 3 3 1 1 2 3 4 4 5 6 5 6 7 7 8 14 20 23 26 31 35 35 34 35 35 37 39 41 43 44 42 41 40 39 36 33 31 30 29 29 29 28 27 25 24 23 23 22 21 19 18 18 19 20 21 24 24 22 21 21 20 20 21 20 19 19 18 16 16 17 17 17 17 16 16 16 16 16 16 17 18 18 19
1 1 1 2 3 2 1 0 5 7 6 6 7 8 9 9 7 9 14 20 24 27 30 33 35 36 35 35 38 41 42 43 44 43 41 40 38 36 33 32 31 31 30 30 29 28 26 25 25 24 23 23 21 19 20 22 23 24 25 24 22 22 21 20 20 20 20 20 19 18 17 17 17 18 18 19 19 19 19 18 17 17 19 20 19 19
2 0 1 2 3 2 1 3 6 7 6 4 7 9 9 9 9 10 13 17 22 27 29 30 32 35 36 36 39 43 44 43 43 44 42 40 38 36 35 34 34 32 32 31 29 28 26 26 26 25 24 24 23 22 24 26 26 26 24 23 22 21 20 20 20 20 20 20 19 19 19 19 18 18 19 20 21 21 21 20 18 18 19 19 19 19
2 1 2 3 3 2 2 5 7 4 2 2 8 11 11 10 11 12 14 17 23 27 30 31 31 31 34 37 40 44 45 42 41 42 42 41 39 38 36 36 35 33 32 31 30 28 27 27 26 25 25 25 24 25 27 28 27 25 23 21 20 18 18 19 19 19 19 19 19 20 21 21 20 20 20 20 21 21 22 21 20 18 19 19 19 18
0 3 3 4 4 3 5 10 8 5 5 7 11 13 14 12 12 14 17 20 24 28 32 34 33 32 32 35 38 43 45 43 42 42 42 40 39 38 37 36 35 33 32 32 31 30 28 27 27 26 27 27 27 28 28 27 26 24 22 20 19 16 15 17 18 19 19 18 19 20 21 21 22 21 20 20 19 20 21 22 21 21 20 19 19 18
Wind_Direction
172 174 198 201 199 186 187 181 188 188 163 162 148 161 192 196 263 255 259 294 65 119 231 178 145 156 169 170 172 168 163 171 175 159 159 162 165 169 170 173 174 173 172 171 170 166 162 162 159 156 157 157 161 165 166 169 171 170 176 185 187 189 194 197 200 204 213 230 245 257 269 273 284 295 299 300 299 300 305 311 310 305 304 306 307 310
169 197 217 199 189 179 184 189 188 181 169 163 153 200 262 209 246 257 250 290 43 143 259 151 131 163 177 175 173 157 146 167 187 180 170 166 168 172 172 171 171 172 171 170 169 166 163 162 160 160 160 163 167 166 165 167 171 172 177 185 186 191 199 202 206 219 239 254 263 267 274 285 296 302 302 301 298 296 299 305 305 301 300 301 303 307
185 222 215 192 177 161 178 194 185 181 175 168 146 155 274 244 261 282 282 319 67 153 267 167 138 182 191 176 170 163 164 179 184 183 176 168 170 175 174 171 170 171 169 170 170 166 164 163 163 163 164 168 170 163 160 163 170 176 179 183 190 200 206 213 224 236 255 268 276 282 288 296 303 306 305 304 298 289 287 293 297 299 302 303 303 304
194 240 208 182 156 148 184 202 175 183 189 169 143 153 243 238 249 284 294 339 355 185 227 151 120 181 195 175 178 174 174 180 177 176 170 166 173 176 174 172 172 171 169 170 170 166 166 166 164 165 167 168 162 156 155 155 162 171 170 168 185 213 216 226 242 249 268 283 293 299 298 302 306 306 306 304 300 292 286 285 287 292 299 301 301 299
223 249 183 159 155 164 188 204 168 170 213 207 174 191 221 207 194 226 286 336 338 331 120 108 77 135 180 174 186 155 128 170 161 155 166 172 176 174 173 175 174 172 170 170 169 167 167 166 164 166 168 162 157 157 156 152 155 158 156 152 163 214 227 236 251 256 277 291 298 299 295 297 299 298 301 302 298 293 289 284 280 285 290 294 295 294
238 246 167 156 173 176 185 206 183 167 195 244 221 209 196 169 194 264 330 357 4 331 293 118 106 274 225 183 180 139 113 167 156 156 174 172 165 168 176 180 176 173 174 174 170 166 166 167 166 167 167 161 159 160 156 153 154 151 154 156 156 195 228 228 237 236 250 266 274 280 282 282 282 285 294 298 293 288 288 286 282 280 281 286 290 292
216 212 163 167 177 177 195 218 202 166 159 236 242 203 171 149 180 260 306 13 51 271 274 149 157 245 281 206 183 158 149 161 173 175 172 159 157 169 180 181 176 176 176 174 170 167 168 169 167 168 168 163 162 161 160 162 160 154 159 160 157 186 210 200 199 210 222 241 256 260 261 263 264 270 278 285 287 285 285 285 282 280 280 283 287 292
184 185 179 180 175 178 202 216 195 158 143 224 221 153 151 161 196 229 228 208 219 264 304 293 153 125 222 223 197 161 150 151 172 181 164 155 159 173 182 180 177 178 175 172 172 172 172 171 170 170 167 164 163 163 165 172 171 167 168 167 175 198 208 202 204 216 226 238 251 252 253 260 268 276 281 283 287 288 287 285 285 287 288 290 292 296
175 186 191 175 180 196 199 186 167 153 154 222 172 128 152 174 193 212 215 225 235 302 297 289 137 128 246 252 170 157 158 158 169 174 165 162 167 174 179 180 178 175 171 169 174 176 175 174 175 173 169 166 166 165 168 176 178 180 182 183 193 208 213 215 221 231 239 247 256 262 267 274 281 285 287 288 291 292 290 287 288 291 293 297 300 301
198 194 189 168 187 201 189 174 155 158 191 208 150 106 119 141 171 199 195 211 114 122 254 256 168 157 260 255 162 170 173 169 171 173 166 166 171 172 171 173 174 170 167 169 175 177 176 179 180 177 172 169 168 166 168 178 183 185 188 192 202 213 217 223 233 242 251 261 270 277 281 283 285 285 284 283 283 283 283 285 288 291 295 300 302 303
259 194 190 183 196 186 176 181 163 174 192 156 121 121 329 18 25 26 115 126 105 236 252 238 192 172 227 228 187 184 182 174 168 162 162 165 170 168 166 168 168 166 166 169 173 172 174 179 179 174 171 167 165 166 171 179 185 188 189 192 203 213 220 230 241 250 259 268 273 276 280 280 280 280 279 276 274 275 280 287 293 298 303 304 302 303
268 199 192 178 184 176 162 185 190 189 185 136 111 137 196 314 354 3 352 69 153 247 262 237 184 170 197 222 200 203 197 178 172 165 166 171 171 167 164 165 165 164 165 168 169 165 167 170 171 172 171 167 167 170 175 180 182 184 186 190 202 213 226 237 242 248 256 263 268 272 275 275 275 275 275 275 277 282 289 293 297 303 305 303 300 302
232 231 254 163 189 189 159 164 212 211 164 156 160 132 139 258 286 253 259 205 210 241 264 243 161 169 218 243 204 194 189 186 186 180 175 172 166 163 160 161 164 163 163 164 162 159 157 157 160 164 162 161 166 171 176 180 179 182 188 195 208 221 231 236 239 246 254 261 267 270 271 271 271 271 272 276 280 284 287 291 296 301 304 304 304 306
224 280 265 181 199 192 169 163 197 212 173 170 176 161 163 163 162 215 231 238 249 240 284 295 207 209 259 300 214 210 207 186 176 173 174 166 156 156 157 158 161 161 159 157 156 156 155 152 153 154 152 150 154 160 166 171 177 185 194 205 218 227 228 229 237 247 254 261 267 268 267 267 268 267 268 272 276 280 283 289 297 302 306 309 312 314
189 251 229 195 200 180 178 190 183 159 154 172 157 137 161 172 161 203 207 184 234 236 314 340 251 194 202 310 282 247 177 141 130 134 150 151 149 154 154 153 154 155 156 154 152 155 156 156 156 154 153 152 154 163 173 179 186 189 192 201 211 218 224 230 241 249 256 264 266 265 263 265 266 266 268 273 278 282 286 293 299 303 308 312 314 318
187 235 241 207 206 173 176 196 170 136 150 184 134 128 185 194 152 106 186 175 185 198 333 350 297 208 179 354 350 138 123 112 114 125 136 141 146 149 148 147 148 150 153 153 153 154 155 158 159 156 155 156 161 169 176 184 191 194 198 208 218 226 235 242 249 255 261 265 265 263 262 263 264 266 270 275 278 284 291 295 299 305 311 314 318 323
181 242 278 202 209 198 183 183 172 165 177 167 146 170 199 168 132 102 201 143 93 137 278 326 236 253 154 31 56 123 123 113 118 128 135 138 141 143 143 142 144 146 148 152 155 155 154 157 159 157 157 158 161 162 165 172 182 194 210 227 237 242 246 248 254 259 260 259 257 256 252 253 260 264 266 269 273 284 295 299 299 303 310 317 324 328
162 245 275 179 197 222 198 184 188 179 159 141 183 192 158 123 116 107 159 11 56 143 286 338 168 187 171 230 129 133 134 135 137 137 139 139 139 140 139 139 142 145 143 146 152 153 153 158 158 156 159 161 161 163 166 171 185 205 221 230 232 238 244 248 253 254 252 247 236 229 231 242 255 260 268 280 288 296 303 305 303 303 312 324 331 332
151 236 272 192 186 214 189 167 207 200 166 144 177 175 142 162 208 104 158 177 116 160 289 359 178 202 200 209 162 151 151 148 145 144 142 142 141 137 135 137 140 143 142 141 147 149 149 153 154 153 158 162 164 172 179 196 228 234 231 230 229 233 239 241 243 242 238 219 200 202 216 239 257 268 278 294 308 312 311 312 312 313 318 327 333 335
133 128 278 233 187 175 145 142 203 215 188 94 143 167 153 156 177 164 162 160 137 156 204 151 192 242 237 210 177 166 163 152 146 148 146 141 140 138 138 138 138 141 141 138 141 144 142 144 148 150 153 157 163 177 202 225 226 215 209 214 219 224 222 218 218 216 205 187 190 213 230 245 266 281 286 307 326 326 325 325 324 321 319 326 336 339
74 144 255 284 202 151 173 202 192 183 162 125 146 177 177 118 131 147 140 117 124 140 159 146 205 251 242 211 180 167 164 160 153 149 142 137 138 139 139 138 138 139 139 137 137 138 137 137 140 142 143 146 154 170 197 203 184 167 163 170 177 184 185 193 200 200 194 189 206 244 255 264 277 287 308 334 334 331 333 337 339 335 330 335 342 343
146 164 201 292 159 178 219 219 174 174 171 160 165 185 178 138 118 132 206 256 106 126 160 154 193 255 258 225 177 169 167 163 152 140 132 136 137 138 138 139 139 138 138 139 139 138 141 141 140 141 140 144 153 161 164 158 149 149 156 157 155 160 167 186 200 193 193 198 225 273 290 303 306 329 341 340 337 337 345 353 358 358 351 349 350 351
151 131 158 251 223 207 243 259 179 180 165 142 161 178 156 135 128 141 191 225 110 103 132 119 146 263 269 270 194 163 148 142 142 133 126 131 135 135 138 139 140 140 141 141 142 144 146 146 146 145 144 147 151 152 150 148 148 157 160 152 150 151 145 134 27 56 41 37 35 360 354 10 30 21 349 344 347 353 9 15 12 12 8 1 360 2
164 140 122 272 285 288 300 324 164 168 136 122 169 157 145 158 149 144 172 181 133 135 137 102 196 266 264 245 141 126 124 128 137 136 130 130 133 136 139 140 140 141 142 143 146 149 149 149 149 145 142 145 146 147 150 156 165 164 155 151 155 147 113 32 16 28 29 45 63 71 103 104 98 81 14 11 16 21 29 31 26 25 21 13 12 16
186 187 96 118 360 349 322 27 100 159 169 173 187 167 157 135 111 116 138 106 110 190 164 137 204 259 246 132 121 120 122 123 132 138 137 135 137 140 141 142 142 143 144 147 149 150 150 150 147 141 138 141 146 151 156 165 169 161 152 156 158 108 41 31 44 57 58 72 115 134 131 125 122 110 66 33 31 36 43 44 40 36 29 24 26 30
176 188 125 142 146 159 195 192 183 185 195 200 145 160 168 136 128 139 116 96 135 214 149 144 197 232 146 133 134 134 133 130 133 139 139 139 141 143 143 144 147 148 149 150 150 150 149 147 144 140 138 145 152 157 161 163 161 155 155 157 134 63 52 58 61 77 97 116 129 130 126 123 116 95 65 46 49 55 58 56 50 45 44 41 41 40
143 171 151 150 168 181 193 218 226 163 144 160 135 145 175 158 140 120 105 138 178 159 158 199 179 152 151 154 151 150 147 144 143 144 142 142 144 146 147 148 150 151 150 150 149 147 145 144 143 142 144 153 158 160 162 160 154 152 153 140 107 82 89 95 93 104 111 119 124 123 118 114 102 86 76 73 72 71 73 71 64 61 59 55 52 49
97 186 184 151 173 213 224 222 208 126 124 144 126 120 155 154 137 127 150 188 155 134 218 232 164 156 172 172 164 162 159 155 154 154 150 146 146 148 149 149 150 152 153 152 149 146 144 144 146 148 154 161 163 162 160 155 149 149 144 122 108 98 92 96 106 110 114 118 119 114 108 102 94 88 85 83 82 81 80 79 74 70 67 61 56 53
115 180 190 112 56 341 328 276 110 102 107 90 94 96 54 123 152 154 174 182 146 148 211 196 170 174 181 177 174 170 163 156 151 151 149 145 146 148 149 151 153 155 153 151 149 148 147 147 150 157 162 164 164 163 160 154 148 143 131 113 102 93 89 95 108 114 117 115 111 106 103 99 94 91 89 87 86 84 81 79 75 72 68 61 56 54
139 177 163 103 70 1 341 337 72 100 108 63 55 45 41 75 135 128 140 155 132 138 176 162 164 191 200 180 173 155 145 142 139 142 145 146 148 150 152 155 157 157 155 154 156 158 155 152 156 164 166 164 165 165 160 151 142 133 120 109 99 92 92 105 117 120 118 112 108 106 104 101 96 92 89 86 85 83 80 79 76 70 66 61 58 56
150 192 151 97 80 347 338 351 44 87 97 73 45 21 44 69 63 60 93 122 96 83 126 135 140 247 315 132 133 135 139 139 140 145 148 150 152 153 155 159 160 160 158 160 164 166 161 159 164 169 168 166 167 165 156 146 139 132 120 109 107 103 100 120 127 125 119 112 110 109 107 105 101 96 92 88 85 83 81 80 75 69 65 62 61 61
113 129 61 91 100 285 315 5 37 79 84 73 39 13 27 65 63 48 77 159 136 122 117 121 144 204 171 131 128 137 143 144 147 151 151 154 157 157 159 163 164 163 162 163 168 170 167 167 171 172 168 166 169 166 156 151 148 138 128 126 143 138 121 130 131 125 120 115 115 116 116 114 109 103 98 94 90 87 84 80 75 70 66 65 65 65
127 127 118 112 131 237 280 325 339 73 80 62 320 342 77 60 95 100 19 233 153 134 131 155 189 171 149 139 138 143 149 154 157 157 155 155 157 159 164 168 168 167 166 168 172 174 175 176 176 175 171 170 171 168 161 161 158 142 138 157 166 163 144 133 131 127 122 120 120 122 122 120 115 108 102 97 92 88 84 79 74 70 67 66 67 66
123 128 139 141 141 225 282 346 12 71 164 236 243 186 171 197 170 148 115 154 146 132 147 169 137 141 150 156 158 161 164 164 161 159 158 157 160 166 169 170 169 168 169 172 174 177 180 181 177 175 174 172 170 166 161 162 157 146 160 179 178 177 152 135 132 127 120 120 124 128 126 124 119 111 104 99 93 88 83 76 72 71 70 69 68 65
115 117 126 94 118 181 299 40 134 217 229 244 262 230 188 194 179 133 90 37 47 92 125 121 133 152 156 150 151 153 154 155 154 156 161 166 171 172 169 167 169 169 170 173 175 175 176 176 173 169 167 165 164 163 159 159 157 161 179 187 183 162 143 134 131 127 122 123 129 131 127 122 117 110 105 100 95 89 83 77 74 74 73 71 69 68
121 121 120 77 97 145 90 99 182 228 263 287 298 267 167 174 175 114 83 323 311 104 142 136 140 150 135 124 131 134 137 142 146 156 166 171 174 172 169 169 171 172 173 174 174 170 166 167 166 161 159 159 159 159 156 152 162 181 185 179 154 138 134 131 130 129 127 126 127 124 119 113 110 108 104 100 95 89 83 78 77 76 75 75 75 75
116 126 115 81 80 139 127 153 246 318 318 296 286 228 169 171 188 149 130 255 280 259 155 139 135 140 129 125 130 133 135 134 130 154 170 171 170 169 168 168 169 171 172 172 171 167 161 161 161 158 158 158 155 156 152 143 163 189 177 156 140 132 129 127 125 123 122 118 115 112 110 108 107 105 103 100 95 89 84 82 81 81 82 81 81 80
91 120 133 123 118 112 103 69 17 21 272 248 242 239 191 156 173 146 114 256 269 211 164 148 141 145 137 132 135 135 135 134 129 167 170 168 166 165 162 162 164 166 167 166 165 161 157 158 159 159 160 157 151 150 145 134 161 177 155 141 136 132 129 125 121 117 114 110 107 106 106 105 104 104 103 100 94 90 88 87 85 85 84 82 81 80
56 58 98 105 100 110 108 111 153 193 235 235 238 255 185 151 164 125 77 280 242 182 165 153 147 154 151 146 146 143 144 159 183 174 168 166 166 163 160 157 158 159 159 162 164 161 158 159 160 159 159 156 151 144 136 134 154 153 141 135 136 134 128 123 119 115 112 109 108 107 105 104 103 101 100 98 95 93 91 89 87 86 85 84 82 82
43 26 57 94 117 137 115 118 197 222 233 227 241 245 173 158 137 95 78 256 212 176 170 161 155 160 159 152 152 155 167 180 169 165 166 165 163 163 163 161 161 159 155 157 162 162 160 160 161 159 156 154 148 140 138 147 152 145 138 137 137 133 127 123 121 118 116 114 113 111 107 105 103 101 99 97 96 95 93 90 90 89 87 86 85 84
34 22 66 115 133 128 117 123 242 259 248 229 227 196 165 146 102 112 215 234 182 172 172 164 158 161 161 160 161 162 154 147 152 157 161 163 161 161 162 162 162 162 160 159 160 159 158 159 159 156 152 148 144 141 148 158 155 146 140 139 137 132 127 126 124 122 121 119 117 114 111 109 107 103 100 98 97 97 96 94 93 91 89 88 86 85
112 64 90 123 125 128 128 119 247 278 245 187 164 160 152 137 159 210 237 182 164 167 170 165 161 161 164 166 162 148 133 140 153 156 159 163 162 159 158 159 159 160 160 158 157 157 156 156 155 151 145 141 142 147 157 163 155 144 140 138 135 132 130 130 129 127 125 122 119 117 115 113 110 107 104 103 102 101 99 98 95 92 91 89 86 83
162 142 155 167 144 120 61 88 132 254 217 157 136 125 160 162 195 210 135 138 160 166 166 165 164 163 164 163 154 143 140 146 154 157 159 163 164 161 160 161 160 157 155 155 156 158 158 155 151 147 141 140 145 153 160 161 150 140 138 137 132 132 134 133 131 129 127 124 121 118 116 114 112 111 110 109 107 104 102 101 98 94 91 88 84 81
171 147 176 210 177 130 124 173 195 243 221 170 152 156 206 197 208 144 135 140 157 165 165 164 164 165 166 159 149 146 147 149 154 158 159 160 162 162 161 162 161 157 155 155 158 160 161 156 149 144 141 143 150 156 161 161 150 142 138 133 131 134 136 134 133 131 127 124 121 118 116 115 114 114 113 112 110 106 104 102 99 95 91 87 84 82
245 189 164 170 176 164 179 212 231 284 281 192 200 309 288 202 180 159 158 156 160 166 168 165 164 166 166 159 150 148 149 151 155 159 159 159 162 163 163 164 164 161 158 158 160 163 164 159 151 146 144 147 154 159 163 164 156 145 136 131 133 136 135 133 133 130 126 123 121 119 118 117 117 117 115 114 113 108 105 104 101 97 94 90 86 83
283 335 118 117 130 212 236 283 337 25 45 112 162 355 55 143 154 162 165 163 164 169 171 169 168 168 165 161 155 150 150 153 155 158 161 162 163 165 165 165 165 163 162 162 163 166 166 160 155 152 149 149 155 159 160 161 156 145 135 132 135 136 134 134 132 127 124 123 120 119 120 120 119 119 118 117 116 110 106 104 101 97 94 91 88 86
293 72 74 82 107 152 294 347 31 46 63 98 119 127 126 132 149 170 173 169 168 171 172 172 172 169 166 165 161 154 152 155 156 157 161 163 164 167 168 166 165 165 166 166 166 168 168 164 160 157 152 151 153 154 153 153 149 140 135 136 138 137 135 134 132 126 123 121 119 119 121 120 119 120 119 117 114 110 107 104 101 99 95 91 89 88
256 128 97 71 96 135 225 119 89 84 87 104 123 143 149 146 153 169 172 171 170 171 171 171 171 168 166 166 164 157 155 157 159 159 161 163 165 167 168 168 167 166 166 167 168 171 172 169 164 160 155 153 153 152 152 150 144 140 139 139 140 139 138 136 132 128 124 121 119 118 117 117 119 119 118 116 112 109 107 105 103 100 96 92 89 86
315 277 156 108 103 108 116 138 121 96 71 91 130 145 154 156 154 153 160 168 170 168 166 165 167 170 170 168 165 160 157 159 161 162 162 163 165 167 167 167 166 164 165 166 169 173 174 170 165 162 158 156 156 153 150 148 144 143 143 143 143 144 142 137 133 129 127 124 121 118 115 115 117 117 117 116 113 110 107 105 102 100 98 96 92 87
18 178 159 116 131 180 198 180 165 131 80 137 143 141 149 159 159 154 157 165 167 166 164 161 160 166 170 169 166 162 159 159 161 162 162 164 166 168 168 166 164 163 164 166 169 172 172 168 166 163 160 158 157 153 149 146 144 145 146 145 147 150 147 140 135 131 129 126 123 119 117 115 114 113 115 115 114 112 110 107 104 102 99 96 92 88
149 213 202 149 159 217 188 170 156 114 118 151 149 144 150 159 161 160 164 168 167 165 166 164 161 159 160 162 164 164 161 159 161 163 162 164 168 170 169 168 166 165 166 168 169 170 169 167 166 164 160 157 156 154 151 148 148 148 149 148 150 153 151 146 140 134 131 129 125 121 117 114 112 110 110 111 111 113 112 110 107 104 99 95 92 87
Height
1465 1469 1470 1469 1471 1472 1473 1474 1475 1477 1478 1478 1480 1481 1482 1483 1480 1475 1472 1469 1469 1472 1473 1475 1479 1483 1484 1482 1483 1486 1489 1492 1494 1493 1492 1493 1494 1495 1496 1498 1500 1502 1504 1506 1508 1510 1511 1513 1514 1516 1517 1518 1520 1522 1523 1525 1526 1526 1528 1529 1531 1532 1533 1534 1535 1536 1537 1538 1539 1540 1541 1540 1539 1538 1537 1537 1537 1537 1537 1537 1537 1536 1536 1535 1535 1534
1464 1468 1468 1467 1469 1470 1472 1473 1473 1476 1477 1478 1480 1481 1482 1483 1479 1473 1472 1470 1469 1473 1474 1474 1480 1484 1483 1482 1481 1484 1489 1492 1495 1494 1492 1492 1494 1495 1496 1498 1500 1502 1504 1505 1507 1509 1511 1513 1514 1516 1517 1518 1520 1522 1524 1525 1526 1527 1529 1531 1532 1533 1534 1534 1535 1536 1537 1538 1539 1540 1540 1539 1538 1537 1536 1536 1536 1536 1536 1536 1536 1535 1534 1534 1533 1532
1466 1466 1465 1466 1468 1469 1471 1472 1473 1475 1477 1479 1481 1482 1483 1481 1478 1473 1471 1470 1470 1472 1473 1473 1480 1484 1482 1480 1481 1482 1485 1486 1487 1489 1490 1491 1493 1495 1496 1497 1499 1501 1502 1504 1507 1509 1511 1513 1514 1516 1518 1519 1521 1522 1524 1525 1527 1528 1529 1531 1533 1533 1534 1535 1535 1536 1537 1538 1538 1539 1538 1537 1537 1536 1536 1536 1536 1535 1535 1535 1535 1534 1533 1533 1532 1532
1469 1465 1463 1465 1467 1469 1471 1472 1473 1475 1476 1479 1480 1482 1483 1479 1479 1477 1473 1472 1470 1471 1472 1473 1479 1484 1483 1482 1481 1482 1483 1484 1485 1489 1491 1492 1494 1495 1496 1498 1499 1500 1501 1503 1506 1509 1511 1513 1515 1517 1518 1520 1521 1523 1524 1526 1527 1529 1529 1530 1532 1534 1534 1535 1535 1536 1537 1538 1538 1538 1537 1536 1536 1536 1536 1536 1535 1535 1534 1535 1535 1534 1533 1532 1531 1531
1465 1461 1460 1464 1466 1467 1469 1471 1474 1476 1477 1479 1479 1480 1480 1478 1478 1478 1476 1473 1471 1470 1471 1474 1484 1489 1487 1486 1485 1485 1487 1488 1488 1491 1494 1494 1495 1498 1500 1500 1501 1502 1503 1504 1506 1508 1511 1513 1515 1517 1519 1520 1521 1523 1525 1526 1527 1529 1529 1529 1531 1533 1534 1535 1536 1536 1537 1537 1537 1537 1536 1536 1536 1536 1536 1536 1535 1534 1534 1533 1534 1533 1532 1531 1530 1529
1463 1459 1459 1463 1466 1467 1468 1470 1472 1474 1477 1479 1476 1474 1476 1477 1477 1478 1477 1477 1479 1478 1471 1473 1489 1496 1490 1486 1485 1487 1490 1491 1492 1494 1494 1493 1495 1500 1502 1502 1502 1504 1506 1506 1506 1508 1511 1513 1515 1517 1519 1520 1521 1523 1525 1527 1528 1528 1529 1529 1530 1533 1535 1536 1536 1537 1537 1538 1537 1537 1537 1536 1536 1536 1536 1536 1535 1534 1533 1532 1532 1532 1531 1530 1529 1528
1459 1458 1458 1461 1464 1466 1468 1469 1469 1470 1476 1479 1473 1470 1473 1475 1477 1478 1479 1482 1486 1483 1472 1471 1485 1496 1496 1490 1484 1485 1488 1492 1495 1495 1494 1493 1495 1498 1501 1502 1503 1504 1506 1507 1509 1510 1511 1513 1515 1517 1519 1520 1521 1523 1525 1526 1527 1528 1529 1529 1531 1534 1536 1536 1537 1537 1537 1537 1537 1537 1537 1536 1536 1536 1536 1535 1534 1533 1532 1531 1530 1530 1530 1529 1528 1526
1454 1456 1459 1460 1463 1466 1468 1468 1467 1468 1474 1476 1469 1468 1472 1474 1476 1477 1479 1484 1483 1480 1475 1472 1477 1489 1496 1493 1485 1484 1488 1493 1496 1495 1493 1493 1494 1498 1500 1502 1503 1505 1506 1508 1510 1511 1512 1513 1516 1518 1519 1520 1522 1523 1525 1526 1527 1529 1530 1530 1532 1535 1537 1536 1536 1536 1536 1536 1537 1536 1536 1536 1536 1536 1535 1535 1534 1533 1531 1530 1530 1529 1528 1527 1526 1525
1450 1454 1457 1459 1463 1465 1465 1464 1465 1467 1470 1470 1466 1467 1469 1470 1473 1474 1478 1483 1482 1483 1482 1475 1475 1486 1495 1492 1487 1488 1489 1492 1494 1493 1492 1492 1494 1497 1500 1502 1504 1506 1508 1509 1511 1512 1513 1515 1517 1518 1519 1520 1522 1523 1525 1527 1528 1530 1530 1529 1532 1535 1536 1536 1536 1536 1536 1536 1537 1537 1537 1536 1536 1535 1535 1534 1533 1532 1531 1530 1529 1528 1527 1526 1525 1524
1449 1451 1453 1457 1461 1460 1460 1460 1462 1465 1467 1466 1465 1467 1467 1469 1472 1473 1478 1481 1482 1488 1486 1476 1475 1484 1496 1496 1491 1491 1490 1489 1491 1490 1490 1492 1494 1497 1499 1502 1504 1507 1509 1510 1511 1513 1514 1516 1518 1519 1520 1520 1522 1523 1525 1527 1528 1529 1528 1528 1532 1535 1536 1536 1536 1536 1536 1537 1537 1537 1537 1536 1536 1535 1534 1533 1532 1531 1530 1530 1529 1528 1526 1525 1524 1523
1448 1449 1451 1453 1454 1454 1456 1459 1461 1463 1464 1464 1466 1468 1470 1472 1472 1474 1479 1479 1485 1491 1481 1473 1473 1477 1491 1497 1490 1488 1485 1483 1486 1490 1491 1493 1495 1496 1498 1501 1504 1506 1508 1510 1512 1513 1514 1516 1518 1519 1520 1521 1522 1523 1524 1526 1527 1528 1528 1530 1534 1536 1536 1536 1536 1536 1537 1538 1538 1538 1537 1536 1535 1535 1534 1532 1531 1530 1530 1529 1528 1527 1526 1524 1523 1522
1449 1450 1449 1447 1449 1451 1454 1458 1460 1461 1463 1465 1467 1470 1475 1478 1477 1479 1481 1481 1490 1491 1474 1469 1473 1473 1484 1492 1486 1481 1480 1479 1482 1484 1487 1490 1492 1495 1497 1500 1504 1506 1507 1509 1511 1513 1514 1516 1518 1520 1520 1521 1522 1523 1524 1526 1526 1527 1530 1533 1535 1536 1536 1536 1537 1537 1537 1538 1538 1537 1537 1536 1535 1534 1533 1531 1530 1530 1529 1528 1527 1526 1524 1523 1522 1521
1450 1449 1447 1446 1447 1449 1453 1460 1463 1462 1464 1467 1470 1474 1482 1487 1488 1488 1486 1487 1490 1484 1473 1472 1474 1473 1481 1485 1481 1478 1477 1478 1479 1478 1480 1484 1488 1492 1496 1500 1503 1505 1506 1509 1510 1512 1514 1515 1518 1520 1520 1521 1522 1523 1524 1525 1527 1529 1532 1534 1535 1536 1536 1537 1537 1537 1537 1537 1537 1537 1536 1535 1534 1533 1531 1530 1530 1529 1528 1527 1526 1524 1523 1521 1520 1519
1455 1451 1447 1447 1446 1445 1449 1458 1462 1463 1464 1467 1470 1475 1483 1488 1493 1494 1493 1494 1489 1477 1475 1476 1471 1475 1484 1483 1479 1478 1476 1477 1480 1482 1483 1486 1488 1492 1497 1500 1502 1504 1506 1508 1510 1512 1514 1515 1518 1519 1520 1520 1522 1523 1525 1527 1529 1531 1532 1534 1535 1536 1536 1536 1537 1537 1537 1537 1536 1535 1534 1533 1532 1531 1530 1530 1529 1528 1527 1526 1524 1523 1521 1520 1519 1518
1459 1456 1447 1444 1444 1441 1444 1449 1452 1456 1461 1464 1465 1470 1477 1478 1481 1486 1486 1486 1481 1473 1477 1479 1475 1481 1486 1481 1478 1477 1477 1478 1482 1485 1487 1490 1493 1495 1498 1500 1502 1504 1506 1508 1510 1511 1514 1515 1517 1519 1519 1520 1522 1524 1527 1528 1530 1531 1532 1533 1534 1535 1535 1535 1536 1536 1536 1536 1535 1534 1533 1532 1531 1530 1529 1528 1527 1527 1526 1524 1523 1521 1520 1519 1518 1516
1454 1452 1440 1438 1440 1438 1441 1444 1445 1452 1459 1462 1462 1467 1472 1468 1467 1476 1479 1477 1473 1471 1479 1486 1485 1485 1482 1478 1477 1476 1477 1480 1483 1486 1489 1492 1494 1496 1499 1500 1502 1503 1506 1508 1509 1512 1514 1515 1517 1519 1519 1520 1522 1524 1526 1527 1529 1531 1532 1532 1533 1533 1534 1534 1535 1535 1534 1534 1533 1532 1531 1530 1529 1528 1528 1527 1526 1525 1524 1523 1522 1521 1520 1518 1517 1516
1451 1449 1437 1436 1438 1436 1438 1441 1442 1448 1455 1460 1463 1464 1464 1460 1460 1470 1478 1481 1478 1475 1485 1495 1491 1485 1483 1481 1479 1477 1479 1481 1484 1487 1490 1492 1494 1496 1499 1500 1502 1504 1506 1508 1509 1513 1515 1515 1517 1519 1519 1521 1522 1524 1526 1526 1528 1529 1530 1531 1532 1532 1533 1533 1533 1533 1533 1532 1531 1530 1529 1529 1528 1527 1526 1526 1525 1524 1523 1521 1520 1520 1519 1517 1516 1515
1445 1445 1436 1434 1438 1435 1435 1438 1439 1442 1447 1455 1460 1459 1458 1460 1463 1465 1472 1481 1482 1480 1490 1496 1490 1485 1488 1487 1482 1480 1481 1482 1485 1487 1490 1493 1495 1497 1499 1501 1503 1506 1508 1509 1511 1514 1515 1516 1518 1520 1520 1522 1523 1524 1525 1526 1527 1528 1528 1529 1530 1531 1531 1531 1531 1531 1531 1530 1530 1529 1528 1527 1527 1526 1525 1524 1524 1523 1522 1520 1519 1518 1517 1516 1515 1514
1440 1443 1437 1431 1434 1434 1433 1440 1444 1442 1441 1446 1449 1449 1454 1463 1467 1466 1470 1477 1481 1490 1499 1496 1490 1488 1487 1485 1481 1480 1481 1481 1483 1487 1489 1492 1495 1497 1499 1501 1503 1507 1509 1510 1512 1514 1515 1517 1519 1520 1521 1523 1524 1524 1525 1525 1526 1526 1527 1527 1528 1529 1529 1529 1530 1529 1529 1529 1528 1528 1527 1526 1526 1525 1524 1523 1522 1521 1520 1519 1518 1517 1516 1515 1515 1513
1437 1442 1440 1431 1429 1431 1434 1441 1446 1445 1442 1442 1445 1447 1449 1455 1459 1461 1467 1468 1473 1494 1505 1498 1495 1492 1482 1478 1477 1475 1477 1478 1480 1485 1487 1490 1494 1496 1499 1501 1503 1507 1510 1511 1512 1515 1517 1518 1520 1521 1522 1523 1524 1524 1524 1525 1525 1525 1526 1526 1527 1527 1527 1528 1528 1528 1528 1528 1527 1526 1525 1525 1524 1524 1523 1522 1521 1520 1519 1518 1517 1516 1516 1515 1514 1513
1436 1441 1442 1435 1430 1433 1437 1437 1439 1442 1443 1444 1447 1450 1450 1450 1453 1457 1464 1465 1466 1485 1501 1499 1498 1490 1475 1471 1473 1473 1475 1476 1477 1482 1486 1490 1494 1496 1499 1501 1503 1506 1509 1511 1512 1515 1517 1519 1521 1522 1523 1523 1524 1524 1524 1524 1524 1525 1525 1525 1525 1526 1526 1527 1527 1526 1526 1526 1525 1524 1523 1523 1523 1523 1522 1521 1521 1520 1519 1518 1517 1516 1515 1514 1513 1512
1436 1439 1441 1439 1436 1436 1433 1429 1430 1433 1436 1438 1442 1447 1448 1448 1453 1460 1468 1469 1465 1473 1486 1489 1487 1481 1473 1470 1471 1472 1474 1476 1478 1481 1486 1491 1493 1496 1499 1501 1503 1506 1508 1511 1513 1516 1518 1520 1522 1523 1523 1523 1524 1524 1524 1524 1525 1524 1524 1524 1525 1525 1526 1526 1526 1525 1525 1524 1523 1523 1522 1523 1523 1522 1522 1521 1520 1520 1519 1518 1517 1516 1515 1514 1513 1512
1432 1437 1440 1440 1436 1434 1429 1426 1428 1428 1429 1433 1435 1441 1446 1445 1447 1456 1463 1465 1466 1471 1480 1482 1477 1474 1473 1472 1470 1472 1475 1478 1481 1483 1487 1491 1493 1496 1500 1502 1505 1507 1509 1512 1514 1516 1519 1520 1522 1522 1522 1523 1524 1524 1525 1525 1525 1524 1524 1524 1525 1525 1525 1525 1525 1524 1523 1523 1522 1522 1522 1522 1523 1522 1522 1521 1520 1520 1519 1518 1517 1516 1516 1514 1513 1513
1431 1436 1440 1440 1435 1430 1427 1426 1427 1426 1428 1433 1434 1437 1441 1440 1440 1446 1451 1455 1462 1470 1474 1477 1477 1475 1473 1473 1472 1474 1477 1480 1483 1485 1487 1492 1495 1497 1500 1503 1505 1507 1510 1512 1514 1517 1519 1520 1522 1522 1522 1523 1524 1525 1525 1525 1525 1524 1524 1524 1525 1525 1525 1524 1524 1523 1522 1522 1522 1522 1522 1522 1523 1522 1522 1521 1520 1520 1519 1518 1518 1517 1516 1515 1514 1513
1432 1438 1441 1443 1442 1439 1436 1434 1433 1431 1430 1431 1433 1435 1435 1436 1439 1444 1448 1451 1458 1467 1466 1465 1473 1477 1473 1473 1474 1476 1479 1482 1485 1487 1488 1491 1495 1497 1500 1503 1505 1507 1510 1512 1515 1517 1518 1520 1521 1522 1522 1523 1524 1525 1525 1525 1525 1524 1524 1525 1525 1524 1524 1523 1522 1522 1522 1522 1522 1522 1523 1523 1523 1522 1522 1521 1521 1520 1519 1519 1518 1518 1517 1516 1515 1515
1431 1436 1438 1443 1448 1449 1447 1442 1438 1436 1432 1431 1432 1433 1433 1435 1437 1442 1448 1452 1457 1467 1466 1459 1467 1476 1475 1474 1476 1478 1481 1483 1486 1488 1489 1490 1494 1497 1499 1502 1505 1507 1510 1512 1514 1516 1518 1520 1521 1521 1522 1523 1524 1525 1525 1525 1525 1524 1524 1525 1524 1523 1523 1522 1522 1522 1522 1522 1522 1523 1523 1523 1523 1523 1522 1522 1521 1520 1520 1520 1519 1519 1518 1517 1516 1516
1428 1433 1435 1436 1439 1440 1438 1436 1433 1431 1431 1432 1433 1433 1434 1434 1434 1439 1448 1451 1454 1462 1465 1462 1466 1473 1474 1473 1475 1477 1479 1482 1485 1487 1489 1490 1493 1497 1500 1502 1504 1506 1509 1511 1513 1516 1518 1519 1520 1521 1522 1524 1524 1525 1526 1525 1525 1525 1525 1524 1523 1523 1522 1522 1522 1522 1522 1522 1522 1523 1523 1523 1523 1523 1522 1522 1521 1521 1521 1521 1520 1520 1519 1519 1518 1517
1426 1432 1433 1432 1433 1433 1432 1433 1431 1428 1432 1436 1436 1436 1436 1435 1436 1439 1443 1446 1451 1457 1462 1464 1467 1469 1470 1470 1471 1473 1475 1478 1482 1484 1487 1489 1492 1496 1499 1501 1504 1506 1509 1512 1514 1516 1518 1519 1521 1522 1522 1523 1525 1525 1525 1525 1525 1525 1525 1524 1523 1523 1522 1522 1522 1522 1522 1523 1523 1523 1524 1524 1524 1524 1523 1523 1522 1522 1522 1522 1521 1521 1520 1520 1519 1518
1422 1430 1433 1433 1436 1437 1436 1434 1430 1431 1439 1444 1443 1440 1438 1438 1437 1435 1439 1444 1446 1447 1452 1460 1466 1466 1465 1466 1466 1468 1470 1473 1479 1483 1486 1489 1492 1495 1498 1501 1504 1507 1510 1513 1515 1516 1518 1519 1520 1521 1521 1522 1525 1525 1525 1524 1524 1525 1525 1524 1524 1523 1523 1523 1523 1523 1523 1523 1524 1524 1525 1525 1525 1525 1524 1524 1524 1523 1523 1523 1523 1522 1522 1521 1520 1519
1420 1428 1432 1433 1438 1440 1440 1437 1432 1432 1440 1445 1448 1447 1443 1442 1440 1437 1442 1448 1446 1446 1450 1457 1466 1467 1464 1464 1466 1469 1472 1476 1480 1485 1487 1490 1493 1495 1499 1502 1504 1507 1510 1512 1514 1516 1518 1519 1520 1520 1521 1523 1524 1525 1525 1524 1524 1525 1524 1524 1524 1524 1524 1524 1524 1524 1525 1525 1525 1525 1526 1526 1526 1526 1526 1526 1525 1525 1525 1524 1524 1524 1523 1522 1521 1520
1419 1429 1431 1431 1439 1443 1441 1441 1438 1434 1438 1444 1450 1451 1445 1443 1444 1443 1448 1450 1448 1453 1459 1462 1468 1471 1467 1467 1469 1472 1475 1478 1482 1485 1488 1491 1493 1496 1499 1502 1504 1507 1509 1511 1513 1515 1517 1518 1519 1520 1521 1523 1524 1525 1525 1524 1524 1524 1524 1524 1524 1524 1524 1525 1525 1526 1526 1526 1526 1527 1527 1528 1528 1528 1527 1527 1527 1527 1526 1526 1525 1525 1524 1523 1522 1521
1417 1431 1433 1430 1441 1447 1442 1444 1445 1438 1438 1443 1448 1452 1449 1445 1446 1449 1453 1452 1448 1454 1464 1468 1469 1469 1466 1466 1470 1473 1476 1478 1481 1484 1487 1491 1493 1495 1498 1501 1503 1505 1508 1510 1513 1515 1517 1518 1519 1520 1521 1523 1524 1525 1525 1524 1524 1524 1525 1525 1525 1525 1525 1526 1526 1527 1527 1527 1528 1528 1529 1529 1529 1529 1529 1528 1528 1528 1528 1527 1527 1526 1525 1524 1523 1522
1418 1428 1433 1433 1442 1447 1442 1445 1448 1440 1440 1446 1449 1453 1456 1453 1452 1454 1455 1454 1450 1452 1461 1462 1458 1459 1462 1465 1469 1474 1476 1478 1480 1482 1485 1489 1492 1495 1496 1499 1501 1504 1507 1510 1513 1514 1516 1517 1518 1520 1521 1523 1524 1524 1525 1524 1524 1525 1525 1526 1526 1526 1526 1527 1528 1528 1528 1529 1529 1530 1530 1530 1530 1530 1530 1530 1530 1529 1529 1529 1528 1527 1526 1525 1524 1523
1420 1424 1433 1436 1440 1445 1445 1446 1447 1444 1446 1451 1453 1454 1456 1456 1455 1454 1453 1453 1451 1450 1454 1453 1451 1456 1461 1463 1464 1467 1469 1472 1476 1480 1483 1486 1490 1493 1496 1498 1501 1504 1507 1510 1512 1513 1515 1516 1518 1520 1521 1523 1524 1524 1524 1525 1525 1526 1526 1526 1526 1526 1527 1528 1528 1529 1529 1530 1531 1531 1531 1531 1531 1531 1531 1531 1531 1531 1530 1530 1529 1528 1527 1526 1526 1525
1421 1425 1436 1440 1440 1445 1448 1446 1447 1449 1451 1453 1454 1455 1455 1455 1456 1455 1454 1455 1453 1452 1453 1453 1454 1456 1459 1461 1465 1467 1469 1472 1476 1480 1484 1486 1488 1491 1495 1498 1501 1503 1506 1508 1510 1512 1513 1515 1517 1519 1521 1523 1524 1524 1524 1525 1525 1526 1527 1527 1527 1527 1528 1529 1529 1530 1530 1531 1532 1532 1532 1532 1533 1533 1533 1533 1533 1532 1532 1531 1530 1529 1529 1528 1527 1526
1419 1425 1434 1444 1446 1447 1448 1447 1448 1452 1456 1455 1455 1454 1453 1455 1456 1454 1453 1454 1453 1452 1453 1454 1457 1459 1461 1464 1469 1472 1475 1478 1480 1483 1485 1487 1489 1490 1493 1496 1499 1502 1505 1507 1509 1510 1512 1515 1518 1519 1521 1523 1524 1524 1524 1525 1526 1527 1527 1527 1528 1528 1529 1530 1530 1531 1532 1532 1533 1533 1533 1534 1534 1534 1534 1534 1534 1533 1533 1532 1531 1531 1530 1529 1528 1527
1417 1422 1428 1440 1449 1449 1449 1451 1453 1454 1455 1455 1453 1450 1450 1451 1451 1448 1449 1453 1453 1453 1452 1454 1458 1461 1463 1466 1470 1473 1477 1481 1485 1488 1488 1489 1491 1492 1493 1496 1499 1502 1505 1507 1509 1511 1513 1515 1518 1520 1521 1523 1524 1524 1525 1526 1527 1527 1527 1528 1529 1530 1531 1531 1531 1532 1533 1533 1534 1534 1535 1535 1536 1536 1536 1535 1535 1534 1533 1533 1532 1532 1531 1531 1530 1529
1417 1419 1421 1431 1447 1452 1449 1451 1455 1453 1450 1448 1448 1446 1445 1446 1447 1445 1447 1451 1453 1452 1451 1453 1457 1461 1462 1465 1470 1474 1478 1483 1488 1488 1488 1490 1491 1492 1495 1498 1500 1503 1505 1507 1509 1511 1513 1516 1518 1519 1521 1522 1524 1524 1525 1526 1527 1527 1528 1529 1531 1532 1532 1533 1533 1534 1535 1535 1535 1536 1537 1537 1537 1537 1537 1536 1536 1535 1534 1534 1534 1533 1533 1532 1531 1530
1419 1423 1423 1428 1443 1450 1443 1444 1451 1450 1444 1444 1445 1445 1445 1445 1445 1446 1448 1449 1449 1450 1450 1451 1454 1459 1460 1461 1465 1470 1475 1481 1485 1485 1486 1488 1490 1492 1495 1499 1502 1504 1506 1508 1510 1512 1514 1516 1518 1519 1521 1522 1524 1525 1526 1527 1527 1528 1529 1531 1532 1533 1534 1535 1535 1536 1536 1536 1537 1537 1538 1538 1538 1538 1538 1537 1536 1536 1536 1535 1535 1535 1534 1534 1533 1532
1422 1425 1428 1431 1439 1445 1442 1445 1451 1448 1443 1445 1445 1444 1445 1444 1443 1448 1451 1446 1442 1444 1446 1447 1449 1454 1457 1459 1461 1464 1467 1471 1475 1480 1484 1488 1490 1493 1495 1498 1501 1503 1505 1508 1511 1513 1515 1516 1517 1519 1521 1523 1524 1525 1527 1528 1528 1529 1531 1532 1534 1535 1535 1536 1537 1537 1537 1538 1538 1539 1539 1539 1540 1539 1539 1538 1538 1537 1537 1537 1537 1537 1536 1536 1535 1534
1429 1431 1435 1436 1439 1442 1443 1446 1450 1446 1441 1444 1444 1442 1443 1444 1446 1451 1447 1438 1437 1441 1443 1444 1446 1451 1455 1457 1457 1460 1464 1467 1472 1479 1485 1488 1492 1495 1497 1499 1502 1504 1506 1508 1511 1513 1516 1517 1518 1520 1522 1523 1525 1526 1527 1528 1529 1531 1532 1534 1535 1536 1536 1537 1538 1538 1538 1539 1539 1540 1540 1541 1541 1540 1540 1539 1539 1539 1539 1539 1539 1539 1538 1538 1537 1536
1433 1436 1440 1440 1441 1445 1444 1444 1448 1446 1439 1439 1442 1441 1442 1444 1446 1444 1438 1434 1437 1440 1442 1444 1445 1449 1455 1457 1457 1459 1464 1469 1474 1480 1485 1488 1492 1495 1498 1500 1503 1505 1508 1510 1511 1513 1515 1517 1519 1520 1522 1524 1526 1527 1528 1530 1530 1532 1533 1535 1536 1537 1537 1538 1538 1539 1539 1540 1540 1541 1541 1542 1542 1541 1541 1541 1541 1541 1540 1540 1541 1540 1540 1539 1539 1538
1430 1432 1437 1439 1443 1449 1448 1446 1447 1443 1437 1437 1440 1441 1442 1442 1440 1437 1435 1436 1439 1441 1443 1446 1447 1449 1455 1458 1459 1460 1463 1468 1475 1481 1485 1489 1492 1496 1499 1501 1504 1507 1509 1511 1513 1514 1515 1517 1520 1521 1523 1525 1527 1528 1530 1531 1531 1533 1534 1536 1536 1537 1538 1539 1539 1540 1540 1541 1541 1542 1542 1543 1543 1542 1542 1542 1543 1542 1542 1542 1542 1542 1541 1541 1540 1539
1431 1431 1434 1437 1439 1442 1442 1442 1441 1437 1436 1436 1437 1438 1439 1438 1437 1437 1437 1438 1440 1443 1446 1448 1450 1452 1455 1457 1459 1460 1462 1467 1474 1480 1485 1489 1492 1496 1499 1502 1504 1507 1509 1511 1514 1515 1516 1518 1520 1522 1524 1527 1528 1530 1531 1532 1533 1534 1535 1536 1537 1538 1539 1540 1540 1541 1541 1542 1543 1543 1543 1544 1544 1544 1544 1544 1544 1544 1543 1544 1544 1543 1543 1543 1542 1541
1432 1432 1432 1434 1438 1439 1438 1437 1437 1437 1437 1437 1436 1436 1437 1437 1438 1439 1438 1438 1441 1443 1446 1449 1451 1454 1456 1458 1461 1462 1462 1465 1472 1479 1484 1488 1492 1496 1499 1502 1505 1507 1509 1512 1514 1516 1517 1519 1521 1523 1526 1528 1530 1531 1532 1533 1534 1534 1535 1537 1538 1539 1540 1541 1541 1542 1542 1543 1544 1544 1545 1545 1545 1545 1545 1545 1546 1545 1545 1545 1545 1545 1544 1544 1544 1543
1433 1434 1432 1433 1438 1440 1438 1438 1439 1438 1438 1437 1436 1437 1437 1437 1438 1439 1439 1440 1442 1444 1446 1449 1452 1454 1457 1459 1461 1464 1465 1467 1472 1479 1484 1488 1492 1496 1499 1502 1505 1507 1509 1512 1514 1516 1518 1520 1522 1524 1526 1529 1531 1532 1534 1535 1535 1535 1536 1537 1539 1540 1541 1542 1542 1543 1544 1544 1545 1546 1546 1546 1546 1546 1546 1547 1547 1547 1547 1547 1546 1546 1546 1546 1545 1545
1434 1433 1434 1435 1437 1438 1437 1439 1440 1439 1438 1438 1437 1437 1438 1438 1439 1439 1440 1441 1443 1445 1448 1450 1452 1456 1459 1459 1460 1463 1467 1469 1473 1479 1485 1488 1491 1495 1499 1502 1505 1507 1510 1512 1514 1517 1519 1520 1522 1524 1526 1529 1532 1533 1534 1535 1536 1536 1537 1539 1540 1542 1542 1543 1544 1544 1545 1546 1546 1547 1548 1547 1547 1547 1547 1548 1548 1548 1548 1548 1548 1547 1547 1547 1547 1546
1434 1433 1435 1438 1438 1438 1438 1440 1441 1440 1439 1439 1438 1438 1439 1439 1439 1440 1441 1442 1444 1447 1449 1452 1454 1457 1459 1461 1462 1463 1467 1471 1475 1479 1484 1489 1492 1495 1499 1502 1505 1507 1510 1513 1515 1517 1519 1521 1523 1525 1527 1529 1532 1533 1535 1536 1537 1538 1539 1540 1542 1543 1544 1544 1545 1545 1546 1547 1548 1549 1549 1549 1549 1548 1548 1549 1549 1549 1549 1549 1549 1549 1548 1549 1549 1548
1434 1434 1436 1438 1440 1441 1441 1441 1441 1440 1440 1440 1439 1439 1440 1440 1440 1441 1442 1444 1446 1448 1450 1454 1457 1458 1459 1461 1462 1463 1467 1473 1476 1479 1484 1489 1493 1496 1499 1502 1505 1508 1510 1513 1516 1518 1519 1521 1523 1525 1528 1530 1532 1534 1535 1536 1538 1539 1541 1542 1543 1544 1545 1545 1546 1547 1548 1549 1549 1550 1550 1550 1550 1550 1550 1550 1550 1550 1550 1551 1551 1551 1550 1550 1551 1550
1435 1436 1437 1439 1441 1441 1439 1438 1438 1438 1439 1441 1441 1440 1441 1442 1442 1442 1444 1446 1448 1449 1451 1454 1458 1460 1461 1462 1462 1464 1468 1473 1478 1481 1484 1488 1492 1496 1499 1502 1505 1508 1511 1514 1516 1519 1520 1522 1524 1526 1528 1530 1532 1534 1535 1537 1539 1541 1542 1544 1545 1545 1546 1546 1547 1548 1549 1550 1551 1551 1551 1551 1551 1551 1551 1551 1551 1551 1551 1552 1552 1553 1552 1552 1552 1552
1436 1436 1435 1436 1437 1436 1435 1436 1437 1437 1438 1440 1441 1442 1443 1444 1444 1445 1446 1448 1450 1450 1451 1453 1456 1460 1463 1465 1466 1466 1468 1473 1478 1482 1485 1489 1493 1496 1499 1502 1505 1508 1511 1514 1516 1519 1521 1523 1525 1527 1528 1530 1532 1534 1536 1538 1540 1542 1543 1545 1546 1546 1547 1547 1548 1549 1550 1551 1552 1552 1552 1552 1552 1552 1553 1553 1553 1553 1553 1553 1554 1554 1554 1554 1554 1554